Location: Espoey
(43.2500°N, 0.1667°W)
Time: 01:21:44
(UTC+00:00)

Daily predictions for brighter satellites

Satellite Brightness Start Highest point End
(mag) Time Altitude Azimuth Time Altitude Azimuth Time Altitude Azimuth
ATLAS 3B R/B 4.3 03:30:35 24° NNE 03:31:18 25° NNE 03:36:57 10° E
NOSS 3-4 (A) 3.9 04:00:50 54° ENE 04:00:50 54° ENE 04:05:54 10° NE
NOSS 3-4 (C) 3.9 04:00:54 54° E 04:00:54 54° E 04:06:02 10° NE
NOSS 3-2 (C) 4.0 04:00:07 85° NNE 04:00:14 86° NE 04:08:52 10° SE
Milstar 3 Cent rocket 4.2 04:00:16 25° S 04:01:27 26° SSE 04:09:52 10° ESE
CENTAUR R/B 3.1 04:01:36 79° NNW 04:02:15 88° NE 04:11:10 10° SE
ATLAS 2AS CENTAUR R/B 3.2 04:15:30 35° SSW 04:19:14 71° ESE 04:27:05 10° NE
NOSS 3-2 (A) 4.4 04:28:37 46° SW 04:28:37 46° SW 04:35:36 10° S
Atlas Centaur 2 4.0 04:26:40 22° S 04:27:46 23° S 04:32:15 10° SE
RESURS DK-1 4.5 04:26:56 10° SSE 04:30:19 26° ESE 04:33:47 10° NE
Lacrosse 5 2.1 04:32:03 65° ENE 04:32:03 65° ENE 04:36:27 10° NE
ATLAS CENTAUR R/B 3.5 04:32:06 18° NE 04:32:11 18° NE 04:34:56 10° E
ADEOS 3.8 04:30:17 10° NNE 04:35:30 66° ESE 04:40:41 10° S
Cosmos 1328 Rocket 4.4 04:35:39 45° NE 04:36:20 50° E 04:40:38 10° SSE
Cosmos 2263 Rocket 3.0 04:43:11 38° N 04:43:11 38° N 04:46:55 10° NNE
Gbstr 26 Del rocket 4.0 04:43:34 36° ENE 04:43:34 36° ENE 04:46:23 10° E
SJ 16-02 2.6 04:45:52 32° NNE 04:45:52 32° NNE 04:48:19 10° NNE
Meteor 1-4 Rocket 4.4 04:46:48 24° SSE 04:46:48 24° SSE 04:48:19 10° SSE
USA 238 DEB 4.4 04:45:53 39° SW 04:45:53 39° SW 04:51:56 10° S
USA 238 4.4 04:45:56 40° SW 04:45:56 40° SW 04:52:02 10° S
Cosmos 1898 Rocket 4.4 04:46:18 10° S 04:51:24 50° ESE 04:56:33 10° NNE
Meteor 1-26 Rocket 4.2 04:48:59 14° N 04:54:01 82° ENE 04:59:37 10° SSE
FENGYUN 3A 3.5 04:55:01 10° N 05:00:24 67° WNW 05:05:44 10° SSW
Cosmos 1408 Rocket 3.8 04:56:40 10° S 05:01:06 71° E 05:05:33 10° NNE
COSMO-SKYMED 1 2.8 05:00:39 10° SSE 05:04:57 68° ENE 05:07:59 19° N
Cosmos 2181 Rocket 3.8 04:59:01 10° N 05:05:14 81° W 05:11:21 10° S
Cosmos 1709 Rocket 4.1 04:59:32 10° SSW 05:05:44 54° WNW 05:12:00 10° N
Cosmos 1937 Rocket 4.3 05:03:32 10° S 05:08:29 51° ESE 05:13:30 10° NNE
Cosmos 1603 4.5 05:12:26 32° WSW 05:12:26 32° WSW 05:16:34 10° SSW
Meteor 2-3 Rocket 3.7 05:07:23 10° SSW 05:13:02 63° WNW 05:18:48 10° N
CZ-4C R/B 1.9 05:11:05 25° SW 05:14:01 85° NW 05:19:53 10° NE
Lacrosse 4 Rocket 1.8 05:14:32 46° SW 05:14:32 46° SW 05:18:31 10° S
FALCON 9 DEB 3.7 05:18:33 43° NNE 05:18:33 43° NNE 05:21:00 10° NE
Cosmos 1943 3.8 05:17:53 34° WSW 05:17:53 34° WSW 05:22:55 10° SSW
Cosmos 1689 Rocket 2.4 05:15:10 10° SSE 05:18:00 60° ENE 05:18:12 57° NE
CZ-4B R/B 3.2 05:14:29 10° NNE 05:18:59 79° ESE 05:23:22 10° S
SAR-Lupe-4 3.4 05:18:14 10° S 05:21:47 75° WSW 05:22:38 49° NNW
Aureole 2 Rocket 4.3 05:20:28 10° SSE 05:22:33 23° ESE 05:24:40 10° NE
ATLAS 3B R/B 2.8 05:17:51 20° NNW 05:22:58 84° NE 05:30:13 10° SE
Cosmos 1862 4.1 05:21:56 10° S 05:25:54 55° E 05:29:52 10° NNE
Genesis I 3.0 05:24:54 28° SW 05:26:50 82° WNW 05:30:42 10° NNE
SKYMED 3 4.5 05:24:40 10° S 05:28:58 66° WSW 05:32:17 17° NNW
deb Chang Zheng 4 3.8 05:28:35 10° N 05:32:44 46° WNW 05:36:53 10° SW
ALOS 3.3 05:28:47 10° N 05:31:45 27° NW 05:31:45 27° NW
Cosmos 990 Rocket 4.0 05:28:53 10° SSW 05:34:04 61° WNW 05:39:18 10° NNE
Cosmos 2074 Rocket 3.9 05:29:28 10° S 05:35:40 79° W 05:41:55 10° N
Cosmos 923 Rocket 4.4 05:34:01 26° NW 05:36:31 42° WSW 05:41:29 10° S
SAR-Lupe-1 4.2 05:35:22 10° S 05:38:50 47° W 05:40:08 31° NW
ASTRO F (AKARI) 4.5 05:37:21 10° NNE 05:40:27 69° ESE 05:43:36 10° S
BREEZE M DEB (TANK) 3.5 05:30:40 10° SW 05:40:43 61° SSE 05:43:53 10° ENE
Cosmos 405 Rocket 2.7 05:38:01 10° S 05:41:40 75° E 05:45:25 10° NNE
Meteor 1-31 Rocket 4.4 05:39:09 10° N 05:40:29 18° NNW 05:40:29 18° NNW
EO 1 Delta rocket 3.8 05:41:01 10° S 05:46:10 87° W 05:50:49 10° N
Cosmos 1812 2.7 05:44:08 10° N 05:47:59 84° E 05:51:50 10° S
Cosmos 2228 Rocket 3.1 05:46:06 10° N 05:50:32 87° E 05:54:55 10° S
Cosmos 1515 Rocket 3.9 05:46:48 10° NNW 05:51:01 43° W 05:55:14 10° SSW
NOSS 3-4 (A) 4.3 05:48:19 21° WNW 05:51:07 30° NW 05:56:40 10° NNE
NOSS 3-4 (C) 4.2 05:48:24 21° W 05:51:14 30° NW 05:56:49 10° NNE
PSLV R/B 4.1 05:47:38 10° S 05:51:40 49° W 05:55:41 10° NNW
SL-4 R/B 3.4 05:50:37 18° NNW 05:52:12 23° N 05:55:13 10° NE
CENTAUR R/B 4.2 05:48:50 19° WNW 05:52:23 25° WSW 05:59:05 10° SSW
SKYMED 2 4.1 05:49:07 10° SSW 05:53:06 36° W 05:56:36 13° NNW
Cosmos 2184 Rocket 4.0 05:47:00 10° SSW 05:53:13 61° W 05:59:33 10° N
GPS 2-04 Rocket1 4.3 05:50:40 13° WSW 05:53:13 24° S 05:56:21 10° SE
Cosmos 1151 Rocket 4.3 05:53:57 20° W 05:53:57 20° W 05:56:41 10° SW
Cosmos 1782 3.7 05:52:14 21° NW 05:53:53 29° W 05:57:23 10° SSW
ERS-2 4.0 05:52:40 10° SW 05:53:52 15° WSW 05:53:52 15° WSW
FALCON 9 DEB 4.1 05:56:58 24° NW 05:57:50 27° NNW 06:00:39 10° NE
Cosmos 1844 Rocket 2.7 05:54:09 10° SW 05:59:41 57° WNW 06:05:18 10° NNE
USA 234 3.7 05:53:23 10° NE 05:59:53 65° SE 06:06:22 10° SW
Cosmos 1680 Rocket 4.3 06:00:25 14° NW 06:04:21 32° W 06:09:00 10° SSW
EXPRESS MD2 4.4 06:03:36 17° NW 06:06:36 53° NNE 06:14:04 10° E
COSMOS 2455 3.0 06:01:46 10° SSW 06:07:47 83° ESE 06:13:51 10° NNE
RESURS DK-1 3.2 06:04:34 10° WSW 06:08:14 30° NW 06:11:56 10° N
BREEZE-M (TANK) 4.2 06:00:28 10° SW 06:09:23 46° SSE 06:12:19 10° ENE
ATLAS 2AS CENTAUR R/B 3.6 06:03:38 10° WSW 06:10:51 36° NW 06:17:57 10° NNE
ATLAS CENTAUR R/B 1.5 06:08:18 15° NW 06:11:16 48° WSW 06:15:06 10° SSE
BREEZE-M DEB 3.6 06:02:56 14° WNW 06:11:26 75° SW 06:14:32 10° SE
Cosmos 1500 Rocket 4.0 06:08:59 10° SW 06:13:00 37° WNW 06:17:02 10° N
NOAA 6 4.0 06:07:52 10° NNE 06:13:01 88° WNW 06:18:07 10° SSW
Cosmos 1844 3.7 06:08:12 10° SW 06:13:37 54° WNW 06:19:06 10° NNE
Lacrosse 5 2.9 06:11:18 14° WNW 06:14:49 28° NNW 06:19:12 10° NE
H-2A R/B 3.2 06:11:51 10° N 06:15:32 40° WNW 06:19:10 10° SW
Atlas Centaur 2 4.0 06:11:34 10° WSW 06:16:02 21° S 06:19:50 10° SE
Cosmos 372 Rocket 3.9 06:12:03 10° SSW 06:17:08 79° WNW 06:22:15 10° NNE
Cosmos 1437 Rocket 2.6 06:14:20 10° NNW 06:18:07 72° W 06:21:52 10° S
CZ-4B DEB 4.2 06:12:43 10° NNE 06:18:11 79° WNW 06:23:39 10° SSW
Okean O Rocket 2.2 06:17:17 10° NNE 06:21:43 64° ESE 06:26:07 10° S
SJ 16-02 3.3 06:22:57 11° NW 06:23:09 11° NW 06:24:07 10° NW
USA 81 4.3 06:18:09 10° S 06:23:23 75° E 06:28:39 10° N
PAYLOAD B 4.2 06:19:06 10° NNE 06:24:39 84° WNW 06:30:08 10° SSW
SMAP 3.2 06:20:45 10° NNE 06:25:26 81° ESE 06:30:05 10° S
Cosmos 2263 Rocket 4.0 06:25:18 10° NW 06:26:40 11° NW 06:28:01 10° NNW
Gbstr 26 Del rocket 3.7 06:26:06 11° WNW 06:29:26 34° SW 06:33:10 10° SSE
ATLAS 5 CENTAUR R/B 2.2 06:26:21 10° SSW 06:30:16 58° ESE 06:34:37 10° NE
Sich 1 3.1 06:29:15 10° SSW 06:33:37 60° W 06:38:02 10° N
CZ-2C R/B 2.8 06:29:27 10° SSE 06:34:57 84° ENE 06:40:22 10° NNW
Nadezhda 3 Rocket 4.3 06:29:53 10° NNW 06:35:50 46° W 06:41:43 10° SSW
AQUARIUS 4.2 06:34:39 10° N 06:39:10 82° WNW 06:43:39 10° SSW
H-2A R/B 2.6 06:35:55 10° N 06:39:34 41° WNW 06:43:10 10° SW
Envisat 3.3 06:34:53 10° N 06:39:44 46° WNW 06:44:34 10° SW
